Flag for Germany Weather past 2 weeks in Schwäbisch Hall, Baden-Württemberg, Germany

Now
83 °F

Scattered clouds.


Feels Like: 83 °F
Forecast: 59 / 86 °F
Wind: 8 mph from West

Location: Oehringen

Current Time: Aug 4, 2015 at 2:16:55 PM

Latest Report: Aug 4, 2015 at 1:00 PM


Visibility: 19 mi

Pressure: 29.92 "Hg

Humidity: 43%

Dew point: 58 °F

Location of Schwäbisch HallLocation

Historic Weather in Schwäbisch Hall — Graph

°F

Schwäbisch Hall temperature yesterday

Maximum temperature yesterday: 91 °F (at 6:00 PM)
Minimum temperature yesterday: 59 °F (at 5:00 AM)
Average temperature yesterday: 77 °F

Past Weeks' High & Low Weather Summary

 TemperatureHumidityPressure
High94 °F (Jul 22, 4:00 PM)94% (Jul 29, 3:00 PM)30.13 "Hg (Jul 29, 3:00 PM)
Low47 °F (Jul 31, 5:00 AM)22% (Aug 3, 6:00 PM)29.65 "Hg (Jul 24, 9:00 PM)
Average70 °F56%29.92 "Hg
* Reported Jul 20 1:00 PM — Aug 4 1:00 PM, Schwäbisch Hall, Weather by CustomWeather, © 2015

Note: Actual official high and low records may vary slightly from our data, if they occured in-between our weather recording intervals... More about our weather records

Advertising

Schwäbisch Hall weather history for previous 24 hours

 ConditionsComfort  
Time TempWeatherWind HumidityBarometerVisibility
1:00 PM
Tue, Aug 4
83 °FScattered clouds.8 mph43%29.92 "Hg19 mi
12:00 PM82 °FOvercast.9 mph42%29.91 "Hg13 mi
11:00 AM86 °FPassing clouds.3 mph34%29.88 "Hg22 mi
10:00 AM84 °FScattered clouds.2 mph41%29.88 "Hg19 mi
9:00 AM81 °FSunny.2 mph43%29.88 "Hg22 mi
8:00 AM73 °FPassing clouds.2 mph56%29.89 "Hg22 mi
7:00 AM69 °FSunny.1 mph63%29.91 "Hg17 mi
5:00 AM69 °FClear.2 mph62%29.92 "Hg19 mi
4:00 AM72 °FClear.2 mph54%29.93 "Hg28 mi
3:00 AM74 °FClear.2 mph50%29.93 "Hg22 mi
2:00 AM74 °FClear.2 mph47%29.94 "Hg28 mi
1:00 AM76 °FClear.3 mph44%29.94 "Hg25 mi
11:00 PM
Mon, Aug 3
76 °FClear.1 mph44%29.95 "Hg25 mi
10:00 PM78 °FClear.2 mph43%29.95 "Hg25 mi
9:00 PM85 °FClear.2 mph29%29.93 "Hg28 mi
8:00 PM90 °FSunny.2 mph24%29.92 "Hg28 mi
7:00 PM91 °FSunny.2 mph23%29.92 "Hg28 mi
6:00 PM91 °FSunny.2 mph22%29.93 "Hg31 mi
5:00 PM91 °FSunny.2 mph24%29.94 "Hg34 mi
4:00 PM90 °FSunny.2 mph24%29.96 "Hg34 mi
3:00 PM90 °FSunny.3 mph24%29.97 "Hg22 mi
2:00 PM89 °FSunny.1 mph26%29.98 "Hg22 mi
Weather by CustomWeather, © 2015

See weather overviewHow to use our weather pages